Regional Weather Roundup
Issued by NWS Charleston, WV

Home | Current Version | Previous Version | Graphics & Text | Print | Product List | Glossary On
Versions: 1 2 3 4 5 6 7 8 9 10 11 12 13 14 15 16 17 18 19 20 21 22 23 24 25 26 27 28 29 30 31 32 33 34 35 36 37 38 39 40 41 42 43 44 45 46 47 48 49 50
000
ASUS41 KRLX 062310
RWRRLX
West Virginia Regional Weather Roundup
National Weather Service Charleston WV
700 PM EDT MON JUL 06 2015

Note: "fair" indicates few or no clouds below 12,000 feet with no
significant weather and/or obstructions to visibility.

WVZ003-070000-
Northern Panhandle of West Virginia

CITY           SKY/WX    TMP DP  RH WIND       PRES   REMARKS
WHEELING       PTSUNNY   74  66  76 W6        30.04S
$$

WVZ009-070000-
Northwest West Virginia

CITY           SKY/WX    TMP DP  RH WIND       PRES   REMARKS
PARKERSBURG    CLOUDY    76  68  76 SW3       30.06F
$$

WVZ006-070000-
Western West Virginia

CITY           SKY/WX    TMP DP  RH WIND       PRES   REMARKS
HUNTINGTON     MOSUNNY   80  65  59 SW6       30.04S
$$

WVZ015-070000-
West Central West Virginia

CITY           SKY/WX    TMP DP  RH WIND       PRES   REMARKS
CHARLESTON     PTSUNNY   79  67  66 S9        30.06S
$$

WVZ022-031-070000-
North Central West Virginia

CITY           SKY/WX    TMP DP  RH WIND       PRES   REMARKS
CLARKSBURG     CLOUDY    73  70  90 SE3       30.05R
MORGANTOWN     PTSUNNY   76  68  76 VRB3      30.05S
$$

WVZ025-035-042-045-070000-
Southern West Virginia

CITY           SKY/WX    TMP DP  RH WIND       PRES   REMARKS
BECKLEY        PTSUNNY   72  63  73 W8        30.16S
LOGAN            N/A     75  68  78 CALM      30.07F
BLUEFIELD      MOSUNNY   73  63  70 W8        30.18F
LEWISBURG      PTSUNNY   75  63  66 W7        30.14S
$$

WVZ047-070000-
Northern Mountains of West Virginia

CITY           SKY/WX    TMP DP  RH WIND       PRES   REMARKS
ELKINS         CLOUDY    72  66  81 S5        30.11S
$$

WVZ052-070000-
Eastern Panhandle of West Virginia

CITY           SKY/WX    TMP DP  RH WIND       PRES   REMARKS
MARTINSBURG    MOSUNNY   82  68  62 S8        30.02F
PETERSBURG     LGT RAIN  73  68  83 SE3       30.05F
$$


USA.gov is the U.S. government's official web portal to all federal, state and local government web resources and services.